| time (UTC) | temp F | wind direction | speed knots | gust knots | rain 1hr in | rain 24hr in | rain mn in | humidity % | barometer mb |
| 20260507040642 | 63 | 301 | 5.2 | 8.7 | 0.00 | 0.00 | 0.00 | 70 | 1017.3 |
| 20260507040141 | 63 | 286 | 4.3 | 8.7 | 0.00 | 0.00 | 0.00 | 70 | 1017.3 |
| 20260507035610 | 63 | 298 | 5.2 | 9.6 | 0.00 | 0.00 | 0.00 | 69 | 1017.3 |
| 20260507035109 | 63 | 297 | 4.3 | 9.6 | 0.00 | 0.00 | 0.00 | 69 | 1016.9 |
| 20260507034607 | 63 | 281 | 4.3 | 9.6 | 0.00 | 0.00 | 0.00 | 69 | 1016.9 |
| 20260507034106 | 63 | 290 | 4.3 | 9.6 | 0.00 | 0.00 | 0.00 | 68 | 1016.9 |
| 20260507033605 | 64 | 296 | 5.2 | 9.6 | 0.00 | 0.00 | 0.00 | 68 | 1016.9 |
| 20260507033033 | 64 | 288 | 5.2 | 10.4 | 0.00 | 0.00 | 0.00 | 68 | 1016.9 |
| 20260507032532 | 64 | 284 | 4.3 | 10.4 | 0.00 | 0.00 | 0.00 | 67 | 1016.9 |
| 20260507032031 | 64 | 287 | 4.3 | 10.4 | 0.00 | 0.00 | 0.00 | 67 | 1016.9 |
| 20260507031531 | 64 | 280 | 5.2 | 10.4 | 0.00 | 0.00 | 0.00 | 66 | 1016.6 |
| 20260507030959 | 65 | 288 | 5.2 | 10.4 | 0.00 | 0.00 | 0.00 | 66 | 1016.6 |
| 20260507030427 | 65 | 284 | 6.1 | 10.4 | 0.00 | 0.00 | 0.00 | 65 | 1016.6 |
| 20260507025926 | 65 | 284 | 6.1 | 10.4 | 0.00 | 0.00 | 0.00 | 65 | 1016.6 |
| 20260507025425 | 65 | 284 | 4.3 | 10.4 | 0.00 | 0.00 | 0.00 | 65 | 1016.6 |
| 20260507024924 | 66 | 281 | 5.2 | 10.4 | 0.00 | 0.00 | 0.00 | 64 | 1016.3 |
| 20260507024423 | 66 | 271 | 5.2 | 11.3 | 0.00 | 0.00 | 0.00 | 64 | 1016.3 |
| 20260507023922 | 66 | 283 | 6.1 | 11.3 | 0.00 | 0.00 | 0.00 | 63 | 1016.3 |
| 20260507023421 | 66 | 284 | 5.2 | 11.3 | 0.00 | 0.00 | 0.00 | 62 | 1016.3 |
| 20260507022920 | 67 | 282 | 7.8 | 13.0 | 0.00 | 0.00 | 0.00 | 61 | 1016.3 |
| 20260507022348 | 67 | 282 | 7.0 | 13.0 | 0.00 | 0.00 | 0.00 | 60 | 1016.3 |
| 20260507021816 | 68 | 277 | 7.0 | 13.0 | 0.00 | 0.00 | 0.00 | 59 | 1016.3 |
| 20260507021314 | 68 | 284 | 8.7 | 13.0 | 0.00 | 0.00 | 0.00 | 59 | 1016.3 |
| 20260507020813 | 69 | 283 | 7.0 | 13.9 | 0.00 | 0.00 | 0.00 | 58 | 1015.9 |
| 20260507020312 | 69 | 283 | 7.0 | 13.9 | 0.00 | 0.00 | 0.00 | 57 | 1015.9 |
| 20260507015740 | 69 | 275 | 7.0 | 13.9 | 0.00 | 0.00 | 0.00 | 57 | 1015.9 |
| 20260507015239 | 70 | 280 | 7.0 | 13.0 | 0.00 | 0.00 | 0.00 | 56 | 1015.9 |
| 20260507014706 | 70 | 282 | 8.7 | 13.0 | 0.00 | 0.00 | 0.00 | 55 | 1015.9 |
| 20260507014205 | 71 | 286 | 7.8 | 13.0 | 0.00 | 0.00 | 0.00 | 54 | 1015.9 |
| 20260507013602 | 71 | 290 | 7.0 | 13.0 | 0.00 | 0.00 | 0.00 | 54 | 1015.9 |
| 20260507013101 | 71 | 281 | 7.0 | 14.8 | 0.00 | 0.00 | 0.00 | 54 | 1015.9 |
| 20260507012600 | 71 | 283 | 9.6 | 14.8 | 0.00 | 0.00 | 0.00 | 53 | 1015.9 |
| 20260507012059 | 71 | 288 | 7.8 | 14.8 | 0.00 | 0.00 | 0.00 | 53 | 1015.9 |
| 20260507011527 | 71 | 277 | 7.8 | 14.8 | 0.00 | 0.00 | 0.00 | 53 | 1015.6 |
| 20260507011026 | 71 | 285 | 9.6 | 14.8 | 0.00 | 0.00 | 0.00 | 53 | 1015.9 |
| 20260507010454 | 72 | 278 | 8.7 | 13.9 | 0.00 | 0.00 | 0.00 | 52 | 1015.6 |
| 20260507005952 | 72 | 286 | 7.8 | 13.9 | 0.00 | 0.00 | 0.00 | 51 | 1015.6 |
| 20260507005420 | 72 | 274 | 7.8 | 13.9 | 0.00 | 0.00 | 0.00 | 50 | 1015.6 |
| 20260507004919 | 73 | 279 | 8.7 | 13.9 | 0.00 | 0.00 | 0.00 | 49 | 1015.6 |
| 20260507004418 | 73 | 263 | 7.8 | 13.9 | 0.00 | 0.00 | 0.00 | 50 | 1015.6 |
| 20260507003917 | 73 | 279 | 7.0 | 13.9 | 0.00 | 0.00 | 0.00 | 49 | 1015.6 |
| 20260507003416 | 73 | 270 | 8.7 | 13.9 | 0.00 | 0.00 | 0.00 | 49 | 1015.6 |
| 20260507002915 | 73 | 278 | 7.8 | 13.9 | 0.00 | 0.00 | 0.00 | 48 | 1015.6 |
| 20260507002414 | 73 | 277 | 8.7 | 13.9 | 0.00 | 0.00 | 0.00 | 48 | 1015.6 |
| 20260507001913 | 74 | 280 | 9.6 | 13.9 | 0.00 | 0.00 | 0.00 | 47 | 1015.6 |
| 20260507001412 | 74 | 287 | 8.7 | 14.8 | 0.00 | 0.00 | 0.00 | 46 | 1015.2 |
| 20260507000911 | 74 | 270 | 7.8 | 14.8 | 0.00 | 0.00 | 0.00 | 47 | 1015.2 |
| 20260507000412 | 73 | 284 | 7.8 | 14.8 | 0.00 | 0.00 | 0.00 | 47 | 1015.2 |
| 20260506235909 | 73 | 272 | 7.8 | 14.8 | 0.00 | 0.00 | 0.00 | 47 | 1015.6 |
| 20260506235409 | 73 | 283 | 7.0 | 16.5 | 0.00 | 0.00 | 0.00 | 48 | 1015.2 |
| 20260506234907 | 73 | 272 | 10.4 | 16.5 | 0.00 | 0.00 | 0.00 | 48 | 1015.2 |
| 20260506234406 | 74 | 282 | 7.0 | 16.5 | 0.00 | 0.00 | 0.00 | 48 | 1015.2 |
| 20260506233834 | 74 | 277 | 8.7 | 15.6 | 0.00 | 0.00 | 0.00 | 47 | 1015.2 |
| 20260506233334 | 74 | 276 | 8.7 | 15.6 | 0.00 | 0.00 | 0.00 | 48 | 1015.2 |
| 20260506232832 | 74 | 279 | 7.0 | 15.6 | 0.00 | 0.00 | 0.00 | 47 | 1015.2 |
| 20260506232331 | 75 | 278 | 7.8 | 15.6 | 0.00 | 0.00 | 0.00 | 47 | 1015.6 |
| 20260506231830 | 75 | 288 | 7.0 | 14.8 | 0.00 | 0.00 | 0.00 | 47 | 1015.6 |
| 20260506231329 | 75 | 281 | 7.8 | 13.9 | 0.00 | 0.00 | 0.00 | 47 | 1015.6 |
| 20260506230757 | 75 | 290 | 7.0 | 13.9 | 0.00 | 0.00 | 0.00 | 48 | 1015.6 |
| 20260506230153 | 75 | 283 | 6.1 | 13.9 | 0.00 | 0.00 | 0.00 | 48 | 1015.6 |
| 20260506225653 | 75 | 287 | 7.8 | 13.9 | 0.00 | 0.00 | 0.00 | 47 | 1015.6 |
| 20260506225152 | 75 | 269 | 9.6 | 15.6 | 0.00 | 0.00 | 0.00 | 48 | 1015.6 |
| 20260506224619 | 75 | 264 | 7.0 | 15.6 | 0.00 | 0.00 | 0.00 | 48 | 1015.6 |
| 20260506224118 | 75 | 273 | 8.7 | 15.6 | 0.00 | 0.00 | 0.00 | 48 | 1015.6 |
| 20260506223617 | 75 | 259 | 8.7 | 14.8 | 0.00 | 0.00 | 0.00 | 47 | 1015.6 |
| 20260506223116 | 75 | 276 | 6.1 | 14.8 | 0.00 | 0.00 | 0.00 | 48 | 1015.6 |
| 20260506222615 | 75 | 284 | 7.0 | 15.6 | 0.00 | 0.00 | 0.00 | 48 | 1015.9 |
| 20260506222114 | 75 | 272 | 7.0 | 15.6 | 0.00 | 0.00 | 0.00 | 47 | 1015.9 |
| 20260506221613 | 75 | 272 | 5.2 | 15.6 | 0.00 | 0.00 | 0.00 | 46 | 1015.9 |
| 20260506221112 | 76 | 276 | 7.0 | 15.6 | 0.00 | 0.00 | 0.00 | 46 | 1015.9 |
| 20260506220540 | 76 | 274 | 7.0 | 12.2 | 0.00 | 0.00 | 0.00 | 45 | 1015.9 |
| 20260506220038 | 76 | 282 | 6.1 | 12.2 | 0.00 | 0.00 | 0.00 | 44 | 1016.3 |
| 20260506215538 | 76 | 262 | 5.2 | 12.2 | 0.00 | 0.00 | 0.00 | 43 | 1016.3 |
| 20260506215037 | 76 | 265 | 7.0 | 12.2 | 0.00 | 0.00 | 0.00 | 43 | 1016.3 |
| 20260506214402 | 76 | 271 | 5.2 | 12.2 | 0.00 | 0.00 | 0.00 | 44 | 1016.3 |
| 20260506213901 | 76 | 259 | 4.3 | 12.2 | 0.00 | 0.00 | 0.00 | 44 | 1016.3 |
| 20260506213400 | 75 | 252 | 4.3 | 12.2 | 0.00 | 0.00 | 0.00 | 44 | 1016.3 |
| 20260506212859 | 75 | 268 | 5.2 | 12.2 | 0.00 | 0.00 | 0.00 | 45 | 1016.6 |
| 20260506212358 | 76 | 279 | 4.3 | 10.4 | 0.00 | 0.00 | 0.00 | 44 | 1016.6 |
| 20260506211826 | 76 | 278 | 5.2 | 10.4 | 0.00 | 0.00 | 0.00 | 44 | 1016.6 |
| 20260506211325 | 75 | 269 | 3.5 | 10.4 | 0.00 | 0.00 | 0.00 | 45 | 1016.6 |
| 20260506210824 | 74 | 261 | 3.5 | 12.2 | 0.00 | 0.00 | 0.00 | 47 | 1016.6 |
| 20260506210323 | 74 | 278 | 5.2 | 12.2 | 0.00 | 0.00 | 0.00 | 45 | 1016.9 |
| 20260506205751 | 75 | 266 | 5.2 | 12.2 | 0.00 | 0.00 | 0.00 | 45 | 1016.9 |
| 20260506205250 | 74 | 271 | 6.1 | 11.3 | 0.00 | 0.00 | 0.00 | 46 | 1016.9 |
| 20260506204749 | 74 | 285 | 5.2 | 8.7 | 0.00 | 0.00 | 0.00 | 46 | 1016.9 |
| 20260506204248 | 73 | 296 | 2.6 | 10.4 | 0.00 | 0.00 | 0.00 | 47 | 1017.3 |
| 20260506203747 | 73 | 276 | 4.3 | 10.4 | 0.00 | 0.00 | 0.00 | 47 | 1017.3 |
| 20260506203246 | 73 | 290 | 4.3 | 10.4 | 0.00 | 0.00 | 0.00 | 46 | 1017.3 |
| 20260506202643 | 73 | 259 | 3.5 | 8.7 | 0.00 | 0.00 | 0.00 | 46 | 1017.3 |
| 20260506202142 | 74 | 254 | 2.6 | 7.8 | 0.00 | 0.00 | 0.00 | 46 | 1017.3 |
| 20260506201641 | 73 | 73 | 1.7 | 7.8 | 0.00 | 0.00 | 0.00 | 45 | 1017.6 |
| 20260506201140 | 72 | 307 | 2.6 | 7.8 | 0.00 | 0.00 | 0.00 | 46 | 1017.6 |
| 20260506200639 | 72 | 285 | 2.6 | 7.8 | 0.00 | 0.00 | 0.00 | 48 | 1017.6 |
| 20260506200138 | 73 | 288 | 2.6 | 7.8 | 0.00 | 0.00 | 0.00 | 46 | 1017.6 |
| 20260506195637 | 72 | 231 | 1.7 | 7.8 | 0.00 | 0.00 | 0.00 | 48 | 1017.9 |
| 20260506195136 | 71 | 240 | 2.6 | 7.8 | 0.00 | 0.00 | 0.00 | 49 | 1017.9 |
| 20260506194636 | 72 | 277 | 4.3 | 7.8 | 0.00 | 0.00 | 0.00 | 47 | 1017.9 |
| 20260506194135 | 72 | 276 | 2.6 | 7.8 | 0.00 | 0.00 | 0.00 | 47 | 1017.9 |
| 20260506193633 | 72 | 272 | 3.5 | 8.7 | 0.00 | 0.00 | 0.00 | 47 | 1017.9 |
| 20260506193133 | 71 | 167 | 0.9 | 8.7 | 0.00 | 0.00 | 0.00 | 48 | 1017.9 |
| 20260506192632 | 70 | 178 | 1.7 | 8.7 | 0.00 | 0.00 | 0.00 | 50 | 1018.3 |
| 20260506192131 | 70 | 281 | 6.1 | 8.7 | 0.00 | 0.00 | 0.00 | 49 | 1018.3 |
| 20260506191630 | 69 | 314 | 1.7 | 6.1 | 0.00 | 0.00 | 0.00 | 50 | 1018.3 |
| 20260506191129 | 69 | 275 | 2.6 | 6.1 | 0.00 | 0.00 | 0.00 | 50 | 1018.3 |
| 20260506190628 | 69 | 254 | 1.7 | 8.7 | 0.00 | 0.00 | 0.00 | 51 | 1018.3 |
| 20260506190127 | 68 | 233 | 1.7 | 8.7 | 0.00 | 0.00 | 0.00 | 52 | 1018.6 |
| 20260506185626 | 68 | 331 | 2.6 | 8.7 | 0.00 | 0.00 | 0.00 | 52 | 1018.6 |
| 20260506185125 | 68 | 264 | 5.2 | 8.7 | 0.00 | 0.00 | 0.00 | 51 | 1018.6 |
| 20260506184623 | 68 | 298 | 3.5 | 8.7 | 0.00 | 0.00 | 0.00 | 53 | 1018.6 |
| 20260506184122 | 68 | 260 | 2.6 | 8.7 | 0.00 | 0.00 | 0.00 | 51 | 1018.6 |
| 20260506183621 | 67 | 299 | 1.7 | 8.7 | 0.00 | 0.00 | 0.00 | 53 | 1018.6 |
| 20260506183120 | 67 | 271 | 2.6 | 8.7 | 0.00 | 0.00 | 0.00 | 52 | 1018.6 |
| 20260506182619 | 67 | 250 | 1.7 | 8.7 | 0.00 | 0.00 | 0.00 | 54 | 1019.0 |
| 20260506182118 | 68 | 272 | 2.6 | 7.8 | 0.00 | 0.00 | 0.00 | 52 | 1019.0 |
| 20260506181617 | 68 | 312 | 1.7 | 7.8 | 0.00 | 0.00 | 0.00 | 52 | 1019.0 |
| 20260506181116 | 67 | 52 | 0.9 | 7.8 | 0.00 | 0.00 | 0.00 | 54 | 1019.0 |
| 20260506180615 | 66 | 275 | 1.7 | 7.8 | 0.00 | 0.00 | 0.00 | 54 | 1019.0 |
| 20260506180114 | 66 | 266 | 2.6 | 7.8 | 0.00 | 0.00 | 0.00 | 54 | 1019.0 |
| 20260506175612 | 66 | 254 | 4.3 | 7.8 | 0.00 | 0.00 | 0.00 | 54 | 1019.0 |
| 20260506175112 | 65 | 331 | 1.7 | 6.1 | 0.00 | 0.00 | 0.00 | 55 | 1019.0 |
| 20260506174611 | 65 | 274 | 1.7 | 6.1 | 0.00 | 0.00 | 0.00 | 55 | 1019.0 |
| 20260506174039 | 65 | 297 | 2.6 | 6.1 | 0.00 | 0.00 | 0.00 | 56 | 1019.0 |
| 20260506173436 | 66 | 281 | 3.5 | 6.1 | 0.00 | 0.00 | 0.00 | 55 | 1019.0 |
| 20260506172934 | 65 | 267 | 1.7 | 5.2 | 0.00 | 0.00 | 0.00 | 56 | 1019.0 |
| 20260506172433 | 66 | 281 | 2.6 | 5.2 | 0.00 | 0.00 | 0.00 | 57 | 1019.0 |
| 20260506171932 | 66 | 234 | 0.9 | 1.7 | 0.00 | 0.00 | 0.00 | 58 | 1019.0 |
| 20260506171431 | 65 | 88 | 0.0 | 3.5 | 0.00 | 0.00 | 0.00 | 59 | 1019.0 |
| 20260506170930 | 64 | 154 | 0.9 | 3.5 | 0.00 | 0.00 | 0.00 | 63 | 1019.0 |
| 20260506170429 | 63 | 199 | 0.9 | 3.5 | 0.00 | 0.00 | 0.00 | 63 | 1019.0 |
| 20260506165929 | 63 | 306 | 1.7 | 3.5 | 0.00 | 0.00 | 0.00 | 62 | 1019.0 |
| 20260506165356 | 62 | 247 | 1.7 | 3.5 | 0.00 | 0.00 | 0.00 | 63 | 1019.0 |
| 20260506164855 | 62 | 276 | 1.7 | 3.5 | 0.00 | 0.00 | 0.00 | 63 | 1019.0 |
| 20260506164354 | 62 | 269 | 1.7 | 2.6 | 0.00 | 0.00 | 0.00 | 66 | 1019.0 |
| 20260506163853 | 62 | 87 | 0.9 | 2.6 | 0.00 | 0.00 | 0.00 | 66 | 1019.0 |
| 20260506163352 | 62 | 260 | 0.9 | 2.6 | 0.00 | 0.00 | 0.00 | 64 | 1019.0 |
| 20260506162851 | 61 | 207 | 0.0 | 2.6 | 0.00 | 0.00 | 0.00 | 67 | 1019.0 |
| 20260506162350 | 61 | 268 | 1.7 | 2.6 | 0.00 | 0.00 | 0.00 | 65 | 1019.0 |
| 20260506161849 | 62 | 248 | 1.7 | 2.6 | 0.00 | 0.00 | 0.00 | 64 | 1019.0 |
| 20260506161347 | 62 | 219 | 0.0 | 2.6 | 0.00 | 0.00 | 0.00 | 66 | 1019.0 |
| 20260506160846 | 61 | 122 | 0.9 | 2.6 | 0.00 | 0.00 | 0.00 | 66 | 1019.0 |
| 20260506160345 | 61 | 100 | 0.9 | 2.6 | 0.00 | 0.00 | 0.00 | 68 | 1019.0 |
| 20260506155843 | 61 | 160 | 1.7 | 2.6 | 0.00 | 0.00 | 0.00 | 68 | 1019.0 |
| 20260506155240 | 60 | 183 | 1.7 | 2.6 | 0.00 | 0.00 | 0.00 | 70 | 1019.0 |
| 20260506154739 | 60 | 209 | 0.9 | 1.7 | 0.00 | 0.00 | 0.00 | 71 | 1019.0 |
| 20260506154239 | 60 | 132 | 0.9 | 1.7 | 0.00 | 0.00 | 0.00 | 72 | 1019.0 |
| 20260506153738 | 58 | 257 | 0.9 | 1.7 | 0.00 | 0.00 | 0.00 | 75 | 1019.3 |
| 20260506153237 | 57 | 257 | 0.0 | 1.7 | 0.00 | 0.00 | 0.00 | 76 | 1019.3 |
| 20260506152736 | 57 | 280 | 0.9 | 1.7 | 0.00 | 0.00 | 0.00 | 75 | 1019.0 |
| 20260506152235 | 57 | 145 | 0.9 | 1.7 | 0.00 | 0.00 | 0.00 | 78 | 1019.0 |
| 20260506151733 | 57 | 289 | 0.0 | 1.7 | 0.00 | 0.00 | 0.00 | 80 | 1019.3 |
| 20260506151232 | 56 | 79 | 0.9 | 1.7 | 0.00 | 0.00 | 0.00 | 82 | 1019.3 |
| 20260506150731 | 55 | 80 | 0.9 | 1.7 | 0.00 | 0.00 | 0.00 | 85 | 1019.3 |
| 20260506150230 | 54 | 48 | 1.7 | 1.7 | 0.00 | 0.00 | 0.00 | 86 | 1019.3 |
| 20260506145729 | 54 | 306 | 0.9 | 1.7 | 0.00 | 0.00 | 0.00 | 87 | 1019.3 |
| 20260506145228 | 53 | 301 | 0.9 | 0.9 | 0.00 | 0.00 | 0.00 | 88 | 1019.3 |
| 20260506144727 | 53 | 332 | 0.0 | 0.9 | 0.00 | 0.00 | 0.00 | 89 | 1019.3 |
| 20260506144226 | 52 | 311 | 0.0 | 0.9 | 0.00 | 0.00 | 0.00 | 90 | 1019.0 |
| 20260506143654 | 52 | 336 | 0.0 | 0.9 | 0.00 | 0.00 | 0.00 | 90 | 1019.3 |
| 20260506143153 | 51 | 39 | 0.0 | 0.9 | 0.00 | 0.00 | 0.00 | 90 | 1019.0 |
| 20260506142652 | 51 | 113 | 0.0 | 0.9 | 0.00 | 0.00 | 0.00 | 90 | 1019.0 |
| 20260506142152 | 51 | 113 | 0.0 | 0.9 | 0.00 | 0.00 | 0.00 | 90 | 1019.0 |
| 20260506141651 | 51 | 113 | 0.0 | 0.9 | 0.00 | 0.00 | 0.00 | 90 | 1019.0 |
| 20260506141119 | 51 | 136 | 0.0 | 0.9 | 0.00 | 0.00 | 0.00 | 90 | 1019.0 |
| 20260506140617 | 51 | 101 | 0.0 | 0.0 | 0.00 | 0.00 | 0.00 | 90 | 1019.0 |
| 20260506140116 | 51 | 65 | 0.0 | 0.0 | 0.00 | 0.00 | 0.00 | 90 | 1019.0 |
| 20260506135616 | 51 | 65 | 0.0 | 0.9 | 0.00 | 0.00 | 0.00 | 90 | 1019.0 |
| 20260506135114 | 51 | 65 | 0.0 | 0.9 | 0.00 | 0.00 | 0.00 | 90 | 1019.0 |
| 20260506134613 | 50 | 65 | 0.0 | 0.9 | 0.00 | 0.00 | 0.00 | 90 | 1019.0 |
| 20260506134112 | 50 | 65 | 0.0 | 0.9 | 0.00 | 0.00 | 0.00 | 90 | 1019.0 |
| 20260506133611 | 50 | 65 | 0.0 | 0.0 | 0.00 | 0.00 | 0.00 | 90 | 1018.6 |
| 20260506133039 | 50 | 65 | 0.0 | 0.0 | 0.00 | 0.00 | 0.00 | 90 | 1018.6 |
| 20260506132538 | 50 | 65 | 0.0 | 0.0 | 0.00 | 0.00 | 0.00 | 89 | 1018.6 |
| 20260506132037 | 50 | 65 | 0.0 | 0.0 | 0.00 | 0.00 | 0.00 | 89 | 1018.6 |
| 20260506131536 | 50 | 65 | 0.0 | 0.0 | 0.00 | 0.00 | 0.00 | 89 | 1018.6 |
| 20260506131035 | 50 | 65 | 0.0 | 0.0 | 0.00 | 0.00 | 0.00 | 89 | 1018.3 |
| 20260506130534 | 50 | 65 | 0.0 | 0.0 | 0.00 | 0.00 | 0.00 | 89 | 1018.3 |
| 20260506130034 | 50 | 65 | 0.0 | 0.0 | 0.00 | 0.00 | 0.00 | 89 | 1018.3 |
| 20260506125501 | 50 | 65 | 0.0 | 0.0 | 0.00 | 0.00 | 0.00 | 89 | 1018.3 |
| 20260506125000 | 51 | 65 | 0.0 | 0.9 | 0.00 | 0.00 | 0.00 | 88 | 1018.3 |
| 20260506124459 | 51 | 65 | 0.0 | 0.9 | 0.00 | 0.00 | 0.00 | 88 | 1018.3 |
| 20260506123927 | 51 | 65 | 0.0 | 0.9 | 0.00 | 0.00 | 0.00 | 88 | 1018.3 |
| 20260506123426 | 51 | 65 | 0.0 | 0.0 | 0.00 | 0.00 | 0.00 | 88 | 1018.3 |
| 20260506122925 | 51 | 65 | 0.0 | 0.9 | 0.00 | 0.00 | 0.00 | 88 | 1018.3 |
| 20260506122424 | 51 | 65 | 0.0 | 0.9 | 0.00 | 0.00 | 0.00 | 88 | 1018.3 |
| 20260506121923 | 50 | 65 | 0.0 | 0.9 | 0.00 | 0.01 | 0.00 | 88 | 1018.3 |
| 20260506121350 | 50 | 65 | 0.0 | 0.9 | 0.00 | 0.01 | 0.00 | 88 | 1017.9 |
| 20260506120848 | 50 | 66 | 0.0 | 0.9 | 0.00 | 0.01 | 0.00 | 88 | 1017.9 |
| 20260506120347 | 50 | 117 | 0.0 | 0.0 | 0.00 | 0.01 | 0.00 | 88 | 1017.9 |
| 20260506115814 | 50 | 117 | 0.0 | 0.0 | 0.00 | 0.01 | 0.00 | 88 | 1017.9 |
| 20260506115313 | 50 | 117 | 0.0 | 0.0 | 0.00 | 0.01 | 0.00 | 88 | 1017.9 |
| 20260506114812 | 50 | 117 | 0.0 | 0.0 | 0.00 | 0.01 | 0.00 | 87 | 1017.9 |
| 20260506114259 | 50 | 117 | 0.0 | 0.0 | 0.00 | 0.01 | 0.00 | 87 | 1017.9 |
| 20260506113759 | 50 | 117 | 0.0 | 0.0 | 0.00 | 0.01 | 0.00 | 87 | 1017.9 |
| 20260506113258 | 50 | 117 | 0.0 | 0.0 | 0.00 | 0.01 | 0.00 | 87 | 1017.9 |
| 20260506112726 | 50 | 116 | 0.0 | 0.0 | 0.00 | 0.01 | 0.00 | 87 | 1017.9 |
| 20260506112225 | 50 | 116 | 0.0 | 0.0 | 0.00 | 0.02 | 0.00 | 87 | 1017.9 |
| 20260506111723 | 50 | 116 | 0.0 | 0.0 | 0.00 | 0.02 | 0.00 | 86 | 1017.9 |
| 20260506111222 | 50 | 116 | 0.0 | 0.9 | 0.00 | 0.03 | 0.00 | 85 | 1017.9 |
| 20260506110721 | 50 | 116 | 0.0 | 0.9 | 0.00 | 0.03 | 0.00 | 85 | 1017.9 |
| 20260506110221 | 51 | 116 | 0.0 | 0.9 | 0.00 | 0.03 | 0.00 | 85 | 1017.9 |
| 20260506105719 | 51 | 116 | 0.0 | 0.9 | 0.00 | 0.05 | 0.00 | 85 | 1017.9 |
| 20260506105218 | 51 | 116 | 0.0 | 0.0 | 0.00 | 0.05 | 0.00 | 85 | 1017.9 |
| 20260506104717 | 51 | 116 | 0.0 | 0.0 | 0.00 | 0.05 | 0.00 | 85 | 1017.9 |
| 20260506104145 | 51 | 116 | 0.0 | 0.0 | 0.00 | 0.06 | 0.00 | 85 | 1017.9 |
| 20260506103613 | 51 | 116 | 0.0 | 0.0 | 0.00 | 0.06 | 0.00 | 85 | 1017.9 |
| 20260506103111 | 51 | 116 | 0.0 | 0.0 | 0.00 | 0.06 | 0.00 | 85 | 1017.9 |
| 20260506102610 | 51 | 116 | 0.0 | 0.0 | 0.00 | 0.06 | 0.00 | 84 | 1017.9 |
| 20260506102109 | 51 | 116 | 0.0 | 0.9 | 0.00 | 0.06 | 0.00 | 84 | 1017.9 |
| 20260506101608 | 51 | 116 | 0.0 | 0.9 | 0.00 | 0.06 | 0.00 | 84 | 1017.9 |
| 20260506101107 | 51 | 116 | 0.0 | 0.9 | 0.00 | 0.06 | 0.00 | 85 | 1017.9 |
| 20260506100536 | 51 | 116 | 0.9 | 0.9 | 0.00 | 0.06 | 0.00 | 84 | 1017.9 |
| 20260506100034 | 51 | 116 | 0.0 | 0.9 | 0.00 | 0.06 | 0.00 | 84 | 1017.9 |
| 20260506095534 | 51 | 116 | 0.0 | 0.9 | 0.00 | 0.06 | 0.00 | 84 | 1017.9 |
| 20260506095033 | 51 | 116 | 0.0 | 0.0 | 0.00 | 0.06 | 0.00 | 84 | 1017.9 |
| 20260506094532 | 51 | 116 | 0.0 | 0.0 | 0.00 | 0.06 | 0.00 | 84 | 1017.9 |
| 20260506094031 | 51 | 116 | 0.0 | 0.0 | 0.00 | 0.06 | 0.00 | 83 | 1017.9 |
| 20260506093530 | 51 | 116 | 0.0 | 0.0 | 0.00 | 0.06 | 0.00 | 83 | 1017.9 |
| 20260506093029 | 52 | 116 | 0.0 | 0.0 | 0.00 | 0.06 | 0.00 | 83 | 1017.9 |
| 20260506092528 | 52 | 116 | 0.0 | 0.0 | 0.00 | 0.06 | 0.00 | 83 | 1017.9 |
| 20260506092027 | 52 | 116 | 0.0 | 0.0 | 0.00 | 0.06 | 0.00 | 82 | 1017.9 |
| 20260506091526 | 52 | 116 | 0.0 | 0.0 | 0.00 | 0.06 | 0.00 | 82 | 1017.9 |
| 20260506091025 | 52 | 116 | 0.0 | 0.0 | 0.00 | 0.06 | 0.00 | 82 | 1017.9 |
| 20260506090524 | 52 | 116 | 0.0 | 0.0 | 0.00 | 0.06 | 0.00 | 82 | 1017.9 |
| 20260506085951 | 52 | 43 | 0.0 | 0.0 | 0.00 | 0.06 | 0.00 | 81 | 1017.9 |
| 20260506085450 | 52 | 43 | 0.0 | 0.9 | 0.00 | 0.06 | 0.00 | 81 | 1018.3 |
| 20260506084917 | 52 | 43 | 0.0 | 0.9 | 0.00 | 0.06 | 0.00 | 81 | 1017.9 |
| 20260506084345 | 52 | 43 | 0.0 | 0.9 | 0.00 | 0.06 | 0.00 | 81 | 1018.3 |
| 20260506083844 | 52 | 44 | 0.9 | 0.9 | 0.00 | 0.06 | 0.00 | 82 | 1018.3 |
| 20260506083343 | 52 | 331 | 0.0 | 0.9 | 0.00 | 0.06 | 0.00 | 82 | 1018.3 |
| 20260506082811 | 52 | 330 | 0.0 | 0.0 | 0.00 | 0.06 | 0.00 | 82 | 1018.3 |
| 20260506082310 | 52 | 330 | 0.0 | 0.0 | 0.00 | 0.06 | 0.00 | 81 | 1018.3 |
| 20260506081809 | 52 | 330 | 0.0 | 0.0 | 0.00 | 0.06 | 0.00 | 80 | 1018.3 |
| 20260506081308 | 52 | 330 | 0.0 | 0.0 | 0.00 | 0.06 | 0.00 | 80 | 1018.3 |
| 20260506080806 | 53 | 330 | 0.0 | 0.0 | 0.00 | 0.06 | 0.00 | 80 | 1018.3 |
| 20260506080306 | 53 | 330 | 0.0 | 0.0 | 0.00 | 0.06 | 0.00 | 79 | 1018.3 |
| 20260506073126 | 54 | 330 | 0.0 | 0.0 | 0.00 | 0.06 | 0.00 | 76 | 1018.3 |
| 20260506072625 | 54 | 330 | 0.0 | 0.0 | 0.00 | 0.06 | 0.00 | 75 | 1018.3 |
| 20260506072053 | 54 | 330 | 0.0 | 0.9 | 0.00 | 0.06 | 0.00 | 75 | 1018.3 |
| 20260506071553 | 55 | 330 | 0.0 | 0.9 | 0.00 | 0.06 | 0.00 | 74 | 1018.3 |
| 20260506071051 | 55 | 330 | 0.0 | 0.9 | 0.00 | 0.06 | 0.00 | 74 | 1018.3 |
| 20260506070551 | 55 | 330 | 0.0 | 0.9 | 0.00 | 0.06 | 0.00 | 74 | 1018.3 |
| 20260506062041 | 56 | 338 | 0.9 | 0.9 | 0.00 | 0.06 | 0.00 | 71 | 1017.9 |
| 20260506061541 | 56 | 338 | 0.0 | 0.9 | 0.00 | 0.06 | 0.00 | 70 | 1017.9 |
| 20260506061040 | 56 | 316 | 0.0 | 0.9 | 0.00 | 0.06 | 0.00 | 70 | 1017.6 |
| 20260506060539 | 56 | 321 | 0.0 | 0.9 | 0.00 | 0.06 | 0.00 | 69 | 1017.6 |
| 20260506051355 | 57 | 301 | 1.7 | 3.5 | 0.00 | 0.06 | 0.00 | 67 | 1017.3 |
| 20260506050854 | 57 | 283 | 0.9 | 4.3 | 0.00 | 0.06 | 0.00 | 68 | 1017.3 |
| 20260506050321 | 57 | 293 | 1.7 | 4.3 | 0.00 | 0.06 | 0.00 | 68 | 1017.3 |
| 20260506044746 | 57 | 297 | 1.7 | 3.5 | 0.00 | 0.06 | 0.00 | 68 | 1016.9 |
| 20260506044245 | 57 | 295 | 0.9 | 3.5 | 0.00 | 0.06 | 0.00 | 68 | 1016.9 |
| 20260506043743 | 57 | 282 | 0.9 | 4.3 | 0.00 | 0.06 | 0.00 | 68 | 1016.9 |
| 20260506043211 | 57 | 282 | 1.7 | 4.3 | 0.00 | 0.06 | 0.00 | 67 | 1016.9 |
| 20260506042639 | 58 | 291 | 1.7 | 5.2 | 0.00 | 0.06 | 0.00 | 67 | 1016.6 |
| 20260506042138 | 58 | 288 | 1.7 | 5.2 | 0.00 | 0.06 | 0.00 | 66 | 1016.6 |
| 20260506041606 | 58 | 285 | 2.6 | 5.2 | 0.00 | 0.06 | 0.00 | 66 | 1016.6 |